Regional Weather Roundup
Issued by NWS

Home | Current Version | Previous Version | Text Only | Print | Product List | Glossary Off
Versions: 1 2 3 4 5 6 7 8 9 10 11 12 13 14 15 16 17 18 19 20 21 22 23 24 25 26 27 28 29 30 31 32 33 34 35 36 37 38 39 40 41 42 43 44 45 46 47 48 49 50

000
ASUS43 KBIS 170520
RWRND

NORTH DAKOTA REGIONAL WEATHER ROUNDUP
NATIONAL WEATHER SERVICE BISMARCK ND
1200 AM CDT THU APR 17 2014

NOTE: "FAIR" INDICATES FEW OR NO CLOUDS BELOW 12,000 FEET WITH NO
SIGNIFICANT WEATHER AND/OR OBSTRUCTIONS TO VISIBILITY.


NDZ001>003-009>011-017-170600-
NORTHWEST NORTH DAKOTA

CITY           SKY/WX    TMP DP  RH WIND       PRES   REMARKS
WILLISTON        N/A    N/A N/A N/A MISG      30.27S
MINOT          CLOUDY    24  13  62 E6        30.29R WCI  17
MINOT AFB      PTCLDY    23  15  70 E7        30.30R WCI  15
$$

NDZ018>021-031>035-040>046-170600-
SOUTHWEST NORTH DAKOTA

CITY           SKY/WX    TMP DP  RH WIND       PRES   REMARKS
BISMARCK       CLOUDY    29  15  56 E8        30.26S
DICKINSON      CLOUDY    27  20  75 E5        30.19S
GARRISON         N/A     28  17  63 E15       30.26S WCI  16
HETTINGER ARPT CLOUDY    26  20  77 E6        30.20S WCI  19
$$

NDZ004>008-012>016-024-026-027-054-170600-
NORTHEAST NORTH DAKOTA

CITY           SKY/WX    TMP DP  RH WIND       PRES   REMARKS
GRAND FORKS    CLEAR     26  19  74 N8        30.26R WCI  18
GRND FRKS AFB  CLEAR     25  19  76 N13       30.30S WCI  14
DEVILS LAKE    CLEAR     25  10  54 NE12      30.31R WCI  14
$$

NDZ022-023-025-028>030-036>039-047>053-170600-
SOUTHEAST NORTH DAKOTA

CITY           SKY/WX    TMP DP  RH WIND       PRES   REMARKS
FARGO          CLEAR     30  18  60 N12       30.23R
JAMESTOWN      CLEAR     26  19  74 N10       30.25R WCI  16
$$




USA.gov is the U.S. government's official web portal to all federal, state and local government web resources and services.